| time (UTC) | temp F | wind direction | speed MPH | gust MPH | rain 1hr in | rain 24hr in | rain mn in | humidity % | barometer mb |
| 20260510213018 | 66 | 152 | 10.0 | 23.0 | 0.00 | 0.00 | 0.00 | 27 | 1009.9 |
| 20260510211512 | 66 | 95 | 19.0 | 36.0 | 0.00 | 0.00 | 0.00 | 34 | 1010.0 |
| 20260510210007 | 69 | 113 | 9.0 | 20.0 | 0.00 | 0.00 | 0.00 | 27 | 1010.2 |
| 20260510204516 | 69 | 164 | 6.0 | 18.0 | 0.00 | 0.00 | 0.00 | 20 | 1010.0 |
| 20260510203006 | 69 | 228 | 4.0 | 18.0 | 0.00 | 0.00 | 0.00 | 17 | 1010.2 |
| 20260510201505 | 70 | 179 | 4.0 | 14.0 | 0.00 | 0.00 | 0.00 | 16 | 1010.4 |
| 20260510200005 | 68 | 87 | 3.0 | 15.0 | 0.00 | 0.00 | 0.00 | 17 | 1010.4 |
| 20260510194502 | 68 | 282 | 6.0 | 11.0 | 0.00 | 0.00 | 0.00 | 18 | 1010.5 |
| 20260510193111 | 67 | 278 | 1.0 | 17.0 | 0.00 | 0.00 | 0.00 | 16 | 1010.5 |
| 20260510191603 | 68 | 308 | 4.0 | 10.0 | 0.00 | 0.00 | 0.00 | 15 | 1010.5 |
| 20260510190103 | 67 | 243 | 6.0 | 17.0 | 0.00 | 0.00 | 0.00 | 20 | 1010.5 |
| 20260510184556 | 67 | 166 | 4.0 | 28.0 | 0.00 | 0.00 | 0.00 | 22 | 1010.6 |
| 20260510183054 | 66 | 195 | 2.0 | 14.0 | 0.00 | 0.00 | 0.00 | 23 | 1010.6 |
| 20260510181552 | 66 | 206 | 3.0 | 9.0 | 0.00 | 0.00 | 0.00 | 26 | 1010.7 |
| 20260510180050 | 64 | 248 | 6.0 | 19.0 | 0.00 | 0.00 | 0.00 | 27 | 1010.9 |
| 20260510174553 | 65 | 192 | 9.0 | 14.0 | 0.00 | 0.00 | 0.00 | 27 | 1010.8 |
| 20260510173057 | 63 | 43 | 2.0 | 13.0 | 0.00 | 0.00 | 0.00 | 30 | 1010.9 |
| 20260510171543 | 63 | 191 | 3.0 | 18.0 | 0.00 | 0.00 | 0.00 | 29 | 1011.1 |
| 20260510170042 | 62 | 292 | 4.0 | 14.0 | 0.00 | 0.00 | 0.00 | 29 | 1011.0 |
| 20260510164553 | 61 | 31 | 3.0 | 11.0 | 0.00 | 0.00 | 0.00 | 34 | 1011.0 |
| 20260510163039 | 60 | 320 | 6.0 | 12.0 | 0.00 | 0.00 | 0.00 | 36 | 1011.0 |
| 20260510161531 | 59 | 266 | 8.0 | 12.0 | 0.00 | 0.00 | 0.00 | 39 | 1010.8 |
| 20260510160030 | 59 | 286 | 5.0 | 11.0 | 0.00 | 0.00 | 0.00 | 41 | 1010.9 |
| 20260510154528 | 58 | 291 | 7.0 | 12.0 | 0.00 | 0.00 | 0.00 | 44 | 1010.9 |
| 20260510153036 | 57 | 295 | 11.0 | 14.0 | 0.00 | 0.00 | 0.00 | 45 | 1010.9 |
| 20260510151520 | 57 | 291 | 8.0 | 11.0 | 0.00 | 0.00 | 0.00 | 46 | 1010.6 |
| 20260510150016 | 56 | 280 | 11.0 | 16.0 | 0.00 | 0.00 | 0.00 | 46 | 1010.6 |
| 20260510144520 | 55 | 235 | 8.0 | 11.0 | 0.00 | 0.00 | 0.00 | 49 | 1010.7 |
| 20260510143007 | 54 | 160 | 4.0 | 9.0 | 0.00 | 0.00 | 0.00 | 51 | 1010.8 |
| 20260510141504 | 52 | 257 | 7.0 | 15.0 | 0.00 | 0.00 | 0.00 | 52 | 1010.7 |
| 20260510140100 | 52 | 272 | 5.0 | 10.0 | 0.00 | 0.00 | 0.00 | 52 | 1010.7 |
| 20260510134555 | 50 | 235 | 7.0 | 11.0 | 0.00 | 0.00 | 0.00 | 56 | 1010.4 |
| 20260510133051 | 49 | 256 | 6.0 | 10.0 | 0.00 | 0.00 | 0.00 | 57 | 1010.2 |
| 20260510131549 | 46 | 275 | 3.0 | 9.0 | 0.00 | 0.00 | 0.00 | 57 | 1009.8 |
| 20260510130043 | 44 | 326 | 8.0 | 10.0 | 0.00 | 0.00 | 0.00 | 55 | 1009.2 |
| 20260510124541 | 44 | 321 | 8.0 | 10.0 | 0.00 | 0.00 | 0.00 | 51 | 1008.9 |
| 20260510123037 | 46 | 346 | 6.0 | 9.0 | 0.00 | 0.00 | 0.00 | 51 | 1008.6 |
| 20260510121535 | 46 | 359 | 6.0 | 8.0 | 0.00 | 0.00 | 0.00 | 51 | 1008.5 |
| 20260510120035 | 47 | 305 | 5.0 | 6.0 | 0.00 | 0.00 | 0.00 | 51 | 1008.5 |
| 20260510114530 | 49 | 268 | 7.0 | 9.0 | 0.00 | 0.00 | 0.00 | 48 | 1008.5 |
| 20260510113024 | 50 | 206 | 6.0 | 8.0 | 0.00 | 0.00 | 0.00 | 45 | 1008.4 |
| 20260510111523 | 49 | 155 | 5.0 | 7.0 | 0.00 | 0.00 | 0.00 | 44 | 1008.2 |
| 20260510110025 | 50 | 342 | 6.0 | 9.0 | 0.00 | 0.00 | 0.00 | 43 | 1008.0 |
| 20260510104516 | 51 | 343 | 8.0 | 10.0 | 0.00 | 0.00 | 0.00 | 41 | 1007.8 |
| 20260510103014 | 52 | 300 | 4.0 | 12.0 | 0.00 | 0.00 | 0.00 | 39 | 1007.5 |
| 20260510101513 | 52 | 303 | 7.0 | 9.0 | 0.00 | 0.00 | 0.00 | 43 | 1007.3 |
| 20260510100008 | 54 | 163 | 0.0 | 5.0 | 0.00 | 0.00 | 0.00 | 41 | 1006.9 |
| 20260510094506 | 56 | 206 | 2.0 | 5.0 | 0.00 | 0.00 | 0.00 | 36 | 1006.8 |
| 20260510093007 | 56 | 152 | 2.0 | 8.0 | 0.00 | 0.00 | 0.00 | 37 | 1006.9 |
| 20260510091504 | 57 | 326 | 0.0 | 6.0 | 0.00 | 0.00 | 0.00 | 34 | 1006.7 |
| 20260510090003 | 57 | 258 | 3.0 | 6.0 | 0.00 | 0.00 | 0.00 | 32 | 1006.6 |
| 20260510084507 | 57 | 197 | 1.0 | 10.0 | 0.00 | 0.00 | 0.00 | 32 | 1006.3 |
| 20260510083002 | 57 | 76 | 7.0 | 15.0 | 0.00 | 0.00 | 0.00 | 31 | 1005.8 |
| 20260510081601 | 57 | 106 | 14.0 | 18.0 | 0.00 | 0.00 | 0.00 | 32 | 1005.6 |
| 20260510080112 | 55 | 95 | 10.0 | 13.0 | 0.00 | 0.00 | 0.00 | 35 | 1005.7 |
| 20260510074617 | 56 | 176 | 4.0 | 9.0 | 0.00 | 0.00 | 0.00 | 35 | 1006.1 |
| 20260510073054 | 56 | 40 | 7.0 | 13.0 | 0.00 | 0.00 | 0.00 | 35 | 1006.4 |
| 20260510071558 | 57 | 62 | 7.0 | 9.0 | 0.00 | 0.00 | 0.00 | 33 | 1006.7 |
| 20260510070052 | 60 | 115 | 7.0 | 19.0 | 0.00 | 0.00 | 0.00 | 30 | 1006.7 |
| 20260510064605 | 56 | 253 | 11.0 | 14.0 | 0.00 | 0.00 | 0.00 | 35 | 1006.8 |
| 20260510063045 | 57 | 191 | 5.0 | 9.0 | 0.00 | 0.00 | 0.00 | 34 | 1006.8 |
| 20260510061543 | 58 | 220 | 4.0 | 6.0 | 0.00 | 0.00 | 0.00 | 33 | 1006.5 |
| 20260510060046 | 58 | 219 | 0.0 | 3.0 | 0.00 | 0.00 | 0.00 | 33 | 1006.3 |
| 20260510054537 | 58 | 158 | 6.0 | 8.0 | 0.00 | 0.00 | 0.00 | 33 | 1006.3 |
| 20260510053041 | 58 | 124 | 5.0 | 8.0 | 0.00 | 0.00 | 0.00 | 32 | 1006.4 |
| 20260510051542 | 59 | 132 | 7.0 | 9.0 | 0.00 | 0.00 | 0.00 | 29 | 1006.4 |
| 20260510050038 | 59 | 195 | 4.0 | 7.0 | 0.00 | 0.00 | 0.00 | 28 | 1006.3 |
| 20260510044540 | 61 | 11 | 1.0 | 6.0 | 0.00 | 0.00 | 0.00 | 27 | 1006.1 |
| 20260510043044 | 61 | 10 | 4.0 | 8.0 | 0.00 | 0.00 | 0.00 | 27 | 1005.7 |
| 20260510041549 | 62 | 335 | 6.0 | 9.0 | 0.00 | 0.00 | 0.00 | 25 | 1005.7 |
| 20260510040035 | 61 | 4 | 6.0 | 9.0 | 0.00 | 0.00 | 0.00 | 26 | 1005.7 |
| 20260510034534 | 62 | 319 | 7.0 | 10.0 | 0.00 | 0.00 | 0.00 | 24 | 1005.7 |
| 20260510033035 | 64 | 321 | 10.0 | 17.0 | 0.00 | 0.00 | 0.00 | 24 | 1005.6 |
| 20260510031533 | 65 | 332 | 14.0 | 21.0 | 0.00 | 0.00 | 0.00 | 22 | 1005.4 |
| 20260510030032 | 64 | 329 | 11.0 | 15.0 | 0.00 | 0.00 | 0.00 | 23 | 1005.1 |
| 20260510024536 | 64 | 320 | 10.0 | 12.0 | 0.00 | 0.00 | 0.00 | 22 | 1004.8 |
| 20260510023032 | 65 | 342 | 8.0 | 16.0 | 0.00 | 0.00 | 0.00 | 21 | 1004.4 |
| 20260510021533 | 66 | 354 | 12.0 | 18.0 | 0.00 | 0.00 | 0.00 | 21 | 1004.2 |
| 20260510020031 | 67 | 338 | 13.0 | 21.0 | 0.00 | 0.00 | 0.00 | 21 | 1004.0 |
| 20260510014531 | 68 | 349 | 19.0 | 27.0 | 0.00 | 0.00 | 0.00 | 20 | 1003.8 |
| 20260510013030 | 69 | 318 | 14.0 | 21.0 | 0.00 | 0.00 | 0.00 | 18 | 1003.4 |
| 20260510011536 | 70 | 287 | 13.0 | 25.0 | 0.00 | 0.00 | 0.00 | 15 | 1003.2 |
| 20260510010037 | 70 | 274 | 20.0 | 27.0 | 0.00 | 0.00 | 0.00 | 15 | 1002.8 |
| 20260510004529 | 70 | 280 | 15.0 | 28.0 | 0.00 | 0.00 | 0.00 | 16 | 1002.9 |
| 20260510003032 | 70 | 281 | 19.0 | 29.0 | 0.00 | 0.00 | 0.00 | 16 | 1002.8 |
| 20260510001528 | 71 | 314 | 19.0 | 29.0 | 0.00 | 0.00 | 0.00 | 16 | 1002.7 |
| 20260510000028 | 71 | 298 | 20.0 | 28.0 | 0.00 | 0.00 | 0.00 | 16 | 1002.6 |
| 20260509234527 | 72 | 302 | 19.0 | 29.0 | 0.00 | 0.00 | 0.00 | 15 | 1002.5 |
| 20260509233027 | 73 | 297 | 24.0 | 33.0 | 0.00 | 0.00 | 0.00 | 15 | 1002.6 |
| 20260509231531 | 72 | 274 | 23.0 | 29.0 | 0.00 | 0.00 | 0.00 | 15 | 1002.7 |
| 20260509230027 | 72 | 255 | 15.0 | 22.0 | 0.00 | 0.00 | 0.00 | 16 | 1002.6 |
| 20260509224526 | 72 | 336 | 6.0 | 16.0 | 0.00 | 0.00 | 0.00 | 16 | 1002.7 |
| 20260509223025 | 72 | 333 | 17.0 | 23.0 | 0.00 | 0.00 | 0.00 | 16 | 1002.7 |
| 20260509221537 | 70 | 343 | 13.0 | 23.0 | 0.00 | 0.00 | 0.00 | 17 | 1002.6 |
| 20260509220023 | 70 | 4 | 13.0 | 28.0 | 0.00 | 0.00 | 0.00 | 17 | 1002.9 |
| 20260509214523 | 71 | 316 | 17.0 | 25.0 | 0.00 | 0.00 | 0.00 | 15 | 1003.0 |